Weather in Yesiplevo

Russia / Vladimir Oblast     56°18′08″N   39°32′32″E
temp.,
°C
wind,
m/s
gust,
m/s
humid.,
%
clouds,
%
prec.,
mm/h
press.,
hPa
HPBL,
m
3 march, wed
wed300:00−2nnw4119391 0.2 1009655
03:00−6nw5128960 0.2 1011452
06:00−7nw5139238 0.0 1013480
09:00−6nw5128663 0.0 1014781
12:00−2nw5108633 0.0 1013842
15:00−1w598967 0.1 1012941
18:00−2w5119299 0.1 1010779
21:00−2w5119299 0.3 1009899
4 march, thu
thu400:00−2wsw51293100 0.1 1005769
03:00−1wsw51297100 1.4 1002870
06:00+1w71397100 1.5 9981094
09:000wnw71395100 2.5 9981188
12:000wnw6116981 0.5 9991205
15:00−1wnw587889 0.5 10001060
18:00−4nnw2592100 0.1 1000177
21:00−7nw2293100 0.1 100150
5 march, fri
fri500:00−9nnw239492 0.0 100244
03:00−11nnw239660 0.0 100332
06:00−12nw22960 0.0 100421
09:00−9wnw12940 0.0 100594
12:00−4w128365 0.0 1006516
15:00−4wnw238783 0.4 1008518
18:00−7nw258990 0.4 1008142
21:00−10nw389445 0.4 1011212
6 march, sat
sat600:00−11wnw249646 0.0 101292
03:00−12nw249638 0.1 101496
06:00−12nnw379592 0.1 1015253
09:00−14nnw368961 0.1 1016260
12:00−10nw37810 0.0 1016793
15:00−9nw477850 0.1 10161067
18:00−11w258997 0.0 1015122
21:00−13wsw389052 0.0 1015189
7 march, sun
sun700:00−13sw49918 0.0 1012255
03:00−11ssw5139238 0.0 1009477
06:00−9sw71492100 0.4 1004969
09:00−6sw81591100 1.6 9981224
12:00−3sw81690100 1.3 9951299
15:00−4nw61193100 3.8 993625
18:00−6wsw2391100 0.4 99284
21:00−10wsw338587 0.8 99449